Dades meteomassalio
Diari Summary for Marc 3, 2017 Units:  Metric    English   Both
« Previous Day
Next Day »
Diari Semanal Mensual Anual Personalitzat
  Maxima: Minima: Mijana:
Temperatura: -17.8 °C -16.6 °C -12.3 °C
Rosada: -17.8 °C -17.2 °C -14.7 °C
Humitat: Humidity % 44 % 76 %
Velocitat del vent: 0 km/h 0 km/h 22 km/h
Racha vent: 0 km/h - -
Vent:- - SSE
Pressio: 0 hPa 33809.2 hPa -
Pluja: 510.54 mm    
Historical Graphs
 
 
Tabular Data for Marc 3, 2017
Time Temperature Dew Point Pressure Wind Wind Speed Wind Gust Humidity Rainfall Rate (Hourly) solar Conditions
-17.8 °C -17.8 °C 0 hPa Calm     Humidity % 0 mm SolarRadiationWatts/m^2 W/m2 Conditions
00:01 -13.8 °C -14.9 °C 34428.8 hPa Calm     87 % 0 mm 0.0 W/m2 CLR
00:06 -13.8 °C -14.9 °C 34428.8 hPa Calm     87 % 0 mm 0.0 W/m2 CLR
00:11 -13.9 °C -15.1 °C 34428.8 hPa Calm     87 % 0 mm 0.0 W/m2 CLR
00:16 -14 °C -15.1 °C 34428.8 hPa Calm     87 % 0 mm 0.0 W/m2 CLR
00:21 -14.1 °C -15.2 °C 34428.8 hPa Calm     87 % 0 mm 0.0 W/m2 CLR
00:26 -14.1 °C -15.1 °C 34428.8 hPa Calm     88 % 0 mm 0.0 W/m2 CLR
00:31 -14.2 °C -15.2 °C 34428.8 hPa Calm     88 % 0 mm 0.0 W/m2 CLR
00:36 -14.2 °C -15.2 °C 34428.8 hPa Calm     88 % 0 mm 0.0 W/m2 CLR
00:41 -14.3 °C -15.3 °C 34418.7 hPa Calm     88 % 0 mm 0.0 W/m2 CLR
00:46 -14.3 °C -15.3 °C 34418.7 hPa Calm     88 % 0 mm 0.0 W/m2 CLR
00:51 -14.3 °C -15.2 °C 34418.7 hPa Calm     89 % 0 mm 0.0 W/m2 CLR
00:56 -14.3 °C -15.3 °C 34418.7 hPa Calm     89 % 0 mm 0.0 W/m2 CLR
01:01 -14.4 °C -15.3 °C 34418.7 hPa Calm     89 % 0 mm 0.0 W/m2 CLR
01:06 -14.4 °C -15.4 °C 34418.7 hPa Calm     89 % 0 mm 0.0 W/m2 CLR
01:11 -14.4 °C -15.4 °C 34405.1 hPa Calm     89 % 0 mm 0.0 W/m2 CLR
01:16 -14.5 °C -15.4 °C 34405.1 hPa Calm     89 % 0 mm 0.0 W/m2 CLR
01:21 -14.6 °C -15.4 °C 34405.1 hPa Calm     89 % 0 mm 0.0 W/m2 CLR
01:26 -14.6 °C -15.5 °C 34405.1 hPa Calm     89 % 0 mm 0.0 W/m2 CLR
01:31 -14.6 °C -15.6 °C 34405.1 hPa Calm     89 % 0 mm 0.0 W/m2 CLR
01:36 -14.7 °C -15.6 °C 34395 hPa Calm     89 % 0 mm 0.0 W/m2 CLR
01:41 -14.8 °C -15.7 °C 34395 hPa Calm     89 % 0 mm 0.0 W/m2 CLR
01:46 -14.8 °C -15.7 °C 34395 hPa Calm     89 % 0 mm 0.0 W/m2 CLR
01:51 -14.8 °C -15.7 °C 34395 hPa Calm     90 % 0 mm 0.0 W/m2 CLR
01:56 -14.8 °C -15.7 °C 34384.8 hPa Calm     90 % 0 mm 0.0 W/m2 CLR
02:01 -14.8 °C -15.7 °C 34384.8 hPa Calm     90 % 0 mm 0.0 W/m2 CLR
02:06 -14.9 °C -15.7 °C 34384.8 hPa Calm     90 % 0 mm 0.0 W/m2 CLR
02:11 -14.9 °C -15.8 °C 34384.8 hPa Calm     90 % 0 mm 0.0 W/m2 CLR
02:16 -14.9 °C -15.8 °C 34384.8 hPa Calm     90 % 0 mm 0.0 W/m2 CLR
02:21 -15.1 °C -15.9 °C 34371.3 hPa Calm     90 % 0 mm 0.0 W/m2 CLR
02:26 -15.1 °C -15.9 °C 34371.3 hPa Calm     90 % 0 mm 0.0 W/m2 CLR
02:31 -15.1 °C -15.9 °C 34371.3 hPa Calm     90 % 0 mm 0.0 W/m2 CLR
02:36 -15.1 °C -15.9 °C 34371.3 hPa Calm     90 % 0 mm 0.0 W/m2 CLR
02:41 -15.2 °C -16 °C 34371.3 hPa Calm     90 % 0 mm 0.0 W/m2 CLR
02:46 -15.2 °C -16 °C 34361.1 hPa Calm     90 % 0 mm 0.0 W/m2 CLR
02:51 -15.2 °C -16.1 °C 34361.1 hPa Calm     90 % 0 mm 0.0 W/m2 CLR
02:56 -15.2 °C -16.1 °C 34361.1 hPa Calm     90 % 0 mm 0.0 W/m2 CLR
03:01 -15.2 °C -16 °C 34361.1 hPa Calm     91 % 0 mm 0.0 W/m2 CLR
03:06 -15.3 °C -16.1 °C 34361.1 hPa Calm     90 % 0 mm 0.0 W/m2 CLR
03:11 -15.3 °C -16.2 °C 34347.6 hPa Calm     90 % 0 mm 0.0 W/m2 CLR
03:16 -15.4 °C -16.2 °C 34347.6 hPa Calm     90 % 0 mm 0.0 W/m2 CLR
03:21 -15.4 °C -16.3 °C 34347.6 hPa Calm     90 % 0 mm 0.0 W/m2 CLR
03:26 -15.5 °C -16.3 °C 34347.6 hPa Calm     90 % 0 mm 0.0 W/m2 CLR
03:31 -15.6 °C -16.4 °C 34347.6 hPa Calm     90 % 0 mm 0.0 W/m2 CLR
03:36 -15.6 °C -16.4 °C 34347.6 hPa Calm     90 % 0 mm 0.0 W/m2 CLR
03:41 -15.6 °C -16.4 °C 34337.4 hPa Calm     90 % 0 mm 0.0 W/m2 CLR
03:46 -15.6 °C -16.3 °C 34337.4 hPa Calm     91 % 0 mm 0.0 W/m2 CLR
03:51 -15.7 °C -16.4 °C 34327.3 hPa Calm     91 % 0 mm 0.0 W/m2 CLR
03:56 -15.7 °C -16.4 °C 34337.4 hPa Calm     91 % 0 mm 0.0 W/m2 CLR
04:01 -15.7 °C -16.4 °C 34327.3 hPa Calm     91 % 0 mm 0.0 W/m2 CLR
04:06 -15.7 °C -16.5 °C 34327.3 hPa Calm     91 % 0 mm 0.0 W/m2 CLR
04:11 -15.8 °C -16.5 °C 34327.3 hPa Calm     91 % 0 mm 0.0 W/m2 CLR
04:16 -15.8 °C -16.6 °C 34313.7 hPa Calm     91 % 0 mm 0.0 W/m2 CLR
04:21 -15.9 °C -16.6 °C 34313.7 hPa Calm     91 % 0 mm 0.0 W/m2 CLR
04:26 -15.9 °C -16.6 °C 34313.7 hPa Calm     91 % 0 mm 0.0 W/m2 CLR
04:31 -15.8 °C -16.6 °C 34313.7 hPa Calm     91 % 0 mm 0.0 W/m2 CLR
04:36 -15.8 °C -16.6 °C 34313.7 hPa Calm     91 % 0 mm 0.0 W/m2 CLR
04:41 -15.8 °C -16.4 °C 34313.7 hPa Calm     92 % 0 mm 0.0 W/m2 CLR
04:42 -15.8 °C -16.4 °C 34313.7 hPa Calm     92 % 0 mm 0.0 W/m2 CLR
04:47 -15.8 °C -16.6 °C 34313.7 hPa Calm     91 % 0 mm 0.0 W/m2 CLR
04:52 -15.9 °C -16.6 °C 34303.6 hPa Calm     91 % 0 mm 0.0 W/m2 CLR
04:57 -15.9 °C -16.7 °C 34303.6 hPa Calm     91 % 0 mm 0.0 W/m2 CLR
05:02 -16 °C -16.8 °C 34293.4 hPa Calm     91 % 0 mm 0.0 W/m2 CLR
05:07 -16.1 °C -16.8 °C 34293.4 hPa Calm     91 % 0 mm 0.0 W/m2 CLR
05:12 -16.1 °C -16.8 °C 34293.4 hPa Calm     91 % 0 mm 0.0 W/m2 CLR
05:17 -16.2 °C -16.9 °C 34293.4 hPa Calm     91 % 0 mm 0.0 W/m2 CLR
05:22 -16.2 °C -16.9 °C 34293.4 hPa Calm     91 % 0 mm 0.0 W/m2 CLR
05:27 -16.2 °C -16.9 °C 34293.4 hPa Calm     91 % 0 mm 0.0 W/m2 CLR
05:32 -16.2 °C -16.9 °C 34293.4 hPa Calm     91 % 0 mm 0.0 W/m2 CLR
05:37 -16.2 °C -16.8 °C 34293.4 hPa Calm     92 % 0 mm 0.0 W/m2 CLR
05:42 -16.2 °C -16.8 °C 34279.9 hPa Calm     92 % 0 mm 0.0 W/m2 CLR
05:47 -16.2 °C -16.8 °C 34293.4 hPa Calm     92 % 0 mm 0.0 W/m2 CLR
05:52 -16.3 °C -16.9 °C 34293.4 hPa Calm     92 % 0 mm 0.0 W/m2 CLR
05:57 -16.3 °C -16.9 °C 34279.9 hPa Calm     92 % 0 mm 0.0 W/m2 CLR
06:02 -16.3 °C -16.9 °C 34279.9 hPa Calm     92 % 0 mm 0.0 W/m2 CLR
06:08 -16.2 °C -16.9 °C 34279.9 hPa Calm     92 % 0 mm 0.0 W/m2 CLR
06:13 -16.2 °C -16.9 °C 34279.9 hPa Calm     92 % 0 mm 0.0 W/m2 CLR
06:18 -16.2 °C -16.9 °C 34279.9 hPa Calm     92 % 0 mm 0.0 W/m2 CLR
06:23 -16.3 °C -16.9 °C 34279.9 hPa Calm     92 % 0 mm 0.0 W/m2 CLR
06:28 -16.3 °C -17 °C 34279.9 hPa Calm     92 % 0 mm 0.0 W/m2 CLR
06:33 -16.3 °C -17 °C 34279.9 hPa Calm     92 % 0 mm 0.0 W/m2 CLR
06:38 -16.3 °C -16.9 °C 34279.9 hPa Calm     92 % 0 mm 0.0 W/m2 CLR
06:43 -16.3 °C -17 °C 34279.9 hPa Calm     92 % 0 mm 0.0 W/m2 CLR
06:48 -16.4 °C -17.1 °C 34269.7 hPa Calm     92 % 0 mm 0.0 W/m2 CLR
06:53 -16.4 °C -17.1 °C 34269.7 hPa Calm     92 % 0 mm 0.0 W/m2 CLR
06:54 -16.4 °C -17.1 °C 34269.7 hPa Calm     92 % 0 mm 0.0 W/m2 CLR
06:59 -16.4 °C -17.1 °C 34269.7 hPa Calm     92 % 0 mm 0.0 W/m2 CLR
07:04 -16.4 °C -17.1 °C 34269.7 hPa Calm     92 % 0 mm 0.0 W/m2 CLR
07:09 -16.4 °C -17.1 °C 34269.7 hPa Calm     92 % 0 mm 0.0 W/m2 CLR
07:14 -16.4 °C -17.1 °C 34256.2 hPa Calm     92 % 0 mm 0.0 W/m2 CLR
07:19 -16.5 °C -17.1 °C 34256.2 hPa Calm     92 % 0 mm 0.0 W/m2 CLR
07:24 -16.5 °C -17.2 °C 34256.2 hPa Calm     92 % 0 mm 0.0 W/m2 OVC
07:29 -16.6 °C -17.2 °C 34256.2 hPa Calm     92 % 0 mm 0.0 W/m2 OVC
07:34 -16.6 °C -17.2 °C 34256.2 hPa Calm     92 % 0 mm 7.0 W/m2 OVC
07:39 -16.6 °C -17.2 °C 34269.7 hPa Calm     92 % 0 mm 11.0 W/m2 BKN
07:44 -16.5 °C -17.2 °C 34256.2 hPa Calm     92 % 0 mm 12.0 W/m2 BKN
07:49 -16.4 °C -16.9 °C 34256.2 hPa Calm     93 % 0 mm 16.0 W/m2 BKN
07:54 -16.3 °C -16.8 °C 34256.2 hPa Calm     93 % 0 mm 19.0 W/m2 BKN
07:59 -16.2 °C -16.8 °C 34256.2 hPa Calm     93 % 0 mm 26.0 W/m2 BKN
08:04 -16.1 °C -16.7 °C 34256.2 hPa Calm     93 % 0 mm 30.0 W/m2 BKN
08:09 -16.2 °C -16.8 °C 34256.2 hPa Calm     92 % 0 mm 25.0 W/m2 BKN
08:15 -16.1 °C -16.8 °C 34246 hPa Calm     92 % 0 mm 28.0 W/m2 BKN
08:20 -16.1 °C -16.8 °C 34246 hPa Calm     92 % 0 mm 47.0 W/m2 SCT
08:25 -16 °C -16.7 °C 34246 hPa Calm     92 % 0 mm 39.0 W/m2 BKN
08:30 -15.9 °C -16.6 °C 34246 hPa Calm     92 % 0 mm 91.0 W/m2 FEW
08:35 -15.8 °C -16.4 °C 34246 hPa Calm     92 % 0 mm 120.0 W/m2 FEW
08:40 -15.6 °C -16.3 °C 34235.8 hPa Calm     92 % 0 mm 142.0 W/m2 CLR
08:45 -15.4 °C -16 °C 34235.8 hPa Calm     92 % 0 mm 155.0 W/m2 CLR
08:50 -15.1 °C -15.7 °C 34235.8 hPa Calm     92 % 0 mm 146.0 W/m2 CLR
08:55 -14.8 °C -15.4 °C 34235.8 hPa Calm     92 % 0 mm 195.0 W/m2 CLR
09:00 -14.5 °C -15.2 °C 34235.8 hPa Calm     91 % 0 mm 209.0 W/m2 CLR
09:05 -14.3 °C -15.2 °C 34222.3 hPa Calm     89 % 0 mm 221.0 W/m2 CLR
09:10 -14.1 °C -15.1 °C 34222.3 hPa Calm     89 % 0 mm 241.0 W/m2 CLR
09:15 -13.7 °C -14.5 °C 34222.3 hPa Calm     91 % 0 mm 257.0 W/m2 CLR
09:20 -13.2 °C -14 °C 34212.1 hPa Calm     91 % 0 mm 265.0 W/m2 CLR
09:25 -12.7 °C -13.5 °C 34212.1 hPa Calm     90 % 0 mm 285.0 W/m2 CLR
09:30 -12.1 °C -13.3 °C 34212.1 hPa Calm     86 % 0 mm 294.0 W/m2 CLR
09:35 -11.7 °C -13.2 °C 34198.6 hPa ESE 10.3 km/h 10.3 km/h 83 % 0 mm 315.0 W/m2 CLR
09:40 -11.3 °C -13 °C 34198.6 hPa ESE 9 km/h 9 km/h 82 % 0 mm 329.0 W/m2 CLR
09:45 -11 °C -12.7 °C 34198.6 hPa SE 20.9 km/h 20.9 km/h 81 % 0 mm 341.0 W/m2 CLR
09:50 -10.7 °C -12.6 °C 34198.6 hPa SE 26.9 km/h 26.9 km/h 79 % 0 mm 357.0 W/m2 CLR
09:55 -10.3 °C -12.6 °C 34198.6 hPa ESE 29.8 km/h 29.8 km/h 77 % 0 mm 373.0 W/m2 CLR
10:00 -10.1 °C -12.4 °C 34188.4 hPa SE 20.8 km/h 20.8 km/h 76 % 0 mm 387.0 W/m2 CLR
10:05 -9.9 °C -12.4 °C 34188.4 hPa ESE 20.9 km/h 20.9 km/h 74 % 0 mm 403.0 W/m2 CLR
10:10 -9.8 °C -12.4 °C 34188.4 hPa East 38.8 km/h 38.8 km/h 73 % 0 mm 417.0 W/m2 CLR
10:15 -9.9 °C -12.6 °C 34188.4 hPa SSE 44.1 km/h 44.1 km/h 73 % 0 mm 420.0 W/m2 CLR
10:20 -10.1 °C -12.6 °C 34178.3 hPa ESE 53.6 km/h 53.6 km/h 74 % 0 mm 441.0 W/m2 CLR
10:25 -10.1 °C -12.4 °C 34178.3 hPa SE 50.7 km/h 50.7 km/h 75 % 0 mm 450.0 W/m2 CLR
10:30 -10.1 °C -12.6 °C 34178.3 hPa ESE 54.4 km/h 54.4 km/h 75 % 0 mm 445.0 W/m2 CLR
10:35 -10.1 °C -12.5 °C 34178.3 hPa SE 57 km/h 57 km/h 75 % 0 mm 459.0 W/m2 CLR
10:40 -10.1 °C -12.6 °C 34164.7 hPa SE 59.5 km/h 59.5 km/h 75 % 0 mm 475.0 W/m2 CLR
10:45 -10.1 °C -12.6 °C 34164.7 hPa SE 53.6 km/h 53.6 km/h 75 % 0 mm 506.0 W/m2 CLR
10:50 -10.2 °C -12.5 °C 34164.7 hPa SE 56.6 km/h 56.6 km/h 76 % 0 mm 513.0 W/m2 CLR
10:55 -10.2 °C -12.4 °C 34164.7 hPa ESE 56.6 km/h 56.6 km/h 76 % 0 mm 527.0 W/m2 CLR
11:00 -10.2 °C -12.6 °C 34164.7 hPa SE 50.7 km/h 50.7 km/h 75 % 0 mm 555.0 W/m2 CLR
11:05 -10 °C -12.4 °C 34154.6 hPa East 46.7 km/h 46.7 km/h 75 % 0 mm 461.0 W/m2 CLR
11:10 -9.9 °C -12.4 °C 34144.4 hPa ESE 38.8 km/h 38.8 km/h 75 % 0 mm 459.0 W/m2 CLR
11:15 -9.8 °C -12.4 °C 34144.4 hPa SSE 46.7 km/h 46.7 km/h 73 % 0 mm 338.0 W/m2 CLR
11:20 -9.6 °C -12.4 °C 34144.4 hPa SE 41.7 km/h 41.7 km/h 71 % 0 mm 381.0 W/m2 CLR
11:25 -9.4 °C -12.6 °C 34144.4 hPa SE 38.8 km/h 38.8 km/h 69 % 0 mm 503.0 W/m2 CLR
11:30 -9.2 °C -12.3 °C 34144.4 hPa SE 35.7 km/h 35.7 km/h 69 % 0 mm 527.0 W/m2 CLR
11:35 -9.1 °C -12.7 °C 34144.4 hPa SE 46.7 km/h 46.7 km/h 65 % 0 mm 506.0 W/m2 CLR
11:40 -9.1 °C -12.8 °C 34130.9 hPa South 53.6 km/h 53.6 km/h 65 % 0 mm 466.0 W/m2 CLR
11:45 -9.2 °C -12.7 °C 34130.9 hPa SE 38.8 km/h 38.8 km/h 66 % 0 mm 582.0 W/m2 CLR
11:50 -9.2 °C -12.6 °C 34130.9 hPa SSE 41.7 km/h 41.7 km/h 67 % 0 mm 603.0 W/m2 CLR
11:55 -9.1 °C -12.5 °C 34120.7 hPa SE 38.8 km/h 38.8 km/h 67 % 0 mm 613.0 W/m2 CLR
12:00 -8.9 °C -12.4 °C 34120.7 hPa SE 36.2 km/h 36.2 km/h 66 % 0 mm 548.0 W/m2 CLR
12:05 -8.8 °C -12.7 °C 34107.2 hPa SE 47.6 km/h 47.6 km/h 63 % 0 mm 555.0 W/m2 CLR
12:10 -8.7 °C -12.9 °C 34107.2 hPa SE 47.6 km/h 47.6 km/h 61 % 0 mm 510.0 W/m2 CLR
12:15 -8.7 °C -13.1 °C 34097 hPa SE 50.7 km/h 50.7 km/h 60 % 0 mm 425.0 W/m2 CLR
12:20 -8.8 °C -13.2 °C 34086.9 hPa SSE 51.8 km/h 51.8 km/h 60 % 0 mm 424.0 W/m2 CLR
12:25 -8.8 °C -13 °C 34073.3 hPa SE 53.6 km/h 53.6 km/h 61 % 0 mm 582.0 W/m2 CLR
12:30 -8.9 °C -13.2 °C 34073.3 hPa SE 68.6 km/h 68.6 km/h 60 % 0 mm 468.0 W/m2 CLR
12:35 -8.8 °C -13.3 °C 34073.3 hPa SE 53.6 km/h 53.6 km/h 59 % 0 mm 374.0 W/m2 CLR
12:36 -8.8 °C -13.3 °C 34063.2 hPa SSE 59.5 km/h 59.5 km/h 59 % 0 mm 357.0 W/m2 CLR
12:41 -8.9 °C -13.1 °C 34063.2 hPa SSE 44.7 km/h 44.7 km/h 61 % 0 mm 441.0 W/m2 CLR
12:46 -8.9 °C -13 °C 34049.6 hPa SE 41.7 km/h 41.7 km/h 62 % 0 mm 485.0 W/m2 CLR
12:51 -8.9 °C -13.1 °C 34049.6 hPa SE 50.7 km/h 50.7 km/h 61 % 0 mm 503.0 W/m2 CLR
12:56 -8.8 °C -13.1 °C 34039.5 hPa SE 44.7 km/h 44.7 km/h 60 % 0 mm 613.0 W/m2 CLR
13:01 -8.7 °C -13.2 °C 34029.3 hPa SE 44.7 km/h 44.7 km/h 59 % 0 mm 429.0 W/m2 CLR
13:06 -8.6 °C -13.2 °C 34029.3 hPa SE 32.8 km/h 32.8 km/h 58 % 0 mm 652.0 W/m2 CLR
13:11 -8.5 °C -13.2 °C 34015.8 hPa East 35.7 km/h 35.7 km/h 57 % 0 mm 610.0 W/m2 CLR
13:16 -8.3 °C -13.1 °C 34015.8 hPa SE 26.9 km/h 26.9 km/h 57 % 0 mm 568.0 W/m2 CLR
13:21 -8.1 °C -13.2 °C 34015.8 hPa SE 28.5 km/h 28.5 km/h 55 % 0 mm 613.0 W/m2 CLR
13:26 -8 °C -13.4 °C 34015.8 hPa SSE 35.7 km/h 35.7 km/h 53 % 0 mm 605.0 W/m2 CLR
13:31 -7.8 °C -13.5 °C 34005.6 hPa SSE 41.7 km/h 41.7 km/h 51 % 0 mm 543.0 W/m2 CLR
13:36 -7.6 °C -13.5 °C 34005.6 hPa South 32.8 km/h 32.8 km/h 50 % 0 mm 520.0 W/m2 CLR
13:41 -7.5 °C -13.9 °C 34005.6 hPa SSW 35.7 km/h 35.7 km/h 47 % 0 mm 561.0 W/m2 CLR
13:46 -7.6 °C -14.1 °C 34015.8 hPa SSW 47.6 km/h 47.6 km/h 46 % 0 mm 461.0 W/m2 CLR
13:51 -7.8 °C -14.8 °C 34015.8 hPa SSW 68.6 km/h 68.6 km/h 44 % 0 mm 489.0 W/m2 CLR
13:56 -7.9 °C -14.3 °C 34005.6 hPa South 32.8 km/h 32.8 km/h 47 % 0 mm 452.0 W/m2 CLR
14:01 -7.9 °C -14.8 °C 33992.1 hPa SSW 50.7 km/h 50.7 km/h 44 % 0 mm 568.0 W/m2 CLR
14:06 -8 °C -14.6 °C 33992.1 hPa SSW 44.7 km/h 44.7 km/h 46 % 0 mm 538.0 W/m2 CLR
14:11 -8.1 °C -14.8 °C 33981.9 hPa South 59.5 km/h 59.5 km/h 45 % 0 mm 540.0 W/m2 CLR
14:16 -8.2 °C -14.9 °C 33981.9 hPa SSW 68.6 km/h 68.6 km/h 45 % 0 mm 548.0 W/m2 CLR
14:21 -8.2 °C -14.9 °C 33981.9 hPa SSE 59.5 km/h 59.5 km/h 45 % 0 mm 527.0 W/m2 CLR
14:26 -8.2 °C -14.9 °C 33971.7 hPa SSW 65.5 km/h 65.5 km/h 45 % 0 mm 520.0 W/m2 CLR
14:31 -8.3 °C -14.8 °C 33971.7 hPa South 35.7 km/h 35.7 km/h 46 % 0 mm 506.0 W/m2 CLR
14:36 -8.2 °C -14.6 °C 33958.2 hPa SSE 32.8 km/h 32.8 km/h 47 % 0 mm 552.0 W/m2 CLR
14:41 -8.2 °C -14.5 °C 33958.2 hPa SE 35.7 km/h 35.7 km/h 47 % 0 mm 550.0 W/m2 CLR
14:46 -8.1 °C -14.6 °C 33958.2 hPa South 32.8 km/h 32.8 km/h 46 % 0 mm 464.0 W/m2 CLR
14:51 -8.2 °C -14.6 °C 33958.2 hPa SSE 41.7 km/h 41.7 km/h 47 % 0 mm 487.0 W/m2 CLR
14:56 -8.4 °C -13.7 °C 33958.2 hPa SE 41.7 km/h 41.7 km/h 54 % 0 mm 490.0 W/m2 CLR
15:01 -8.6 °C -13.8 °C 33948 hPa SE 32.8 km/h 32.8 km/h 54 % 0 mm 490.0 W/m2 CLR
15:06 -8.6 °C -13.6 °C 33948 hPa SSE 35.7 km/h 35.7 km/h 55 % 0 mm 487.0 W/m2 CLR
15:11 -8.7 °C -13.4 °C 33948 hPa ESE 47.6 km/h 47.6 km/h 57 % 0 mm 434.0 W/m2 CLR
15:16 -8.8 °C -13.4 °C 33948 hPa ESE 33.6 km/h 33.6 km/h 58 % 0 mm 359.0 W/m2 CLR
15:21 -8.9 °C -13.4 °C 33937.9 hPa East 25.9 km/h 25.9 km/h 59 % 0 mm 399.0 W/m2 CLR
15:26 -8.9 °C -13.5 °C 33937.9 hPa SE 23.8 km/h 23.8 km/h 58 % 0 mm 343.0 W/m2 CLR
15:31 -8.8 °C -13.4 °C 33948 hPa SSE 20.9 km/h 20.9 km/h 58 % 0 mm 422.0 W/m2 CLR
15:36 -8.4 °C -14.6 °C 33948 hPa SSW 46.7 km/h 46.7 km/h 48 % 0 mm 455.0 W/m2 CLR
15:41 -8.2 °C -15.1 °C 33948 hPa South 51.8 km/h 51.8 km/h 44 % 0 mm 367.0 W/m2 CLR
15:47 -8.3 °C -15.2 °C 33948 hPa SSW 44.1 km/h 44.1 km/h 44 % 0 mm 262.0 W/m2 CLR
15:52 -8.3 °C -14.8 °C 33948 hPa South 32.8 km/h 32.8 km/h 46 % 0 mm 227.0 W/m2 CLR
15:57 -8.5 °C -14.8 °C 33948 hPa South 50.7 km/h 50.7 km/h 47 % 0 mm 209.0 W/m2 CLR
16:02 -8.7 °C -14.8 °C 33948 hPa SSE 38.8 km/h 38.8 km/h 48 % 0 mm 214.0 W/m2 CLR
16:07 -8.7 °C -14.6 °C 33948 hPa SSE 44.7 km/h 44.7 km/h 50 % 0 mm 223.0 W/m2 CLR
16:12 -8.8 °C -14.6 °C 33948 hPa SSE 47.6 km/h 47.6 km/h 50 % 0 mm 207.0 W/m2 CLR
16:17 -8.8 °C -14.5 °C 33948 hPa South 47.6 km/h 47.6 km/h 51 % 0 mm 218.0 W/m2 CLR
16:22 -8.9 °C -14.6 °C 33948 hPa SE 54.4 km/h 54.4 km/h 51 % 0 mm 229.0 W/m2 CLR
16:27 -8.9 °C -14.3 °C 33937.9 hPa SE 38.8 km/h 38.8 km/h 52 % 0 mm 227.0 W/m2 CLR
16:32 -8.9 °C -14.4 °C 33937.9 hPa SSE 62.6 km/h 62.6 km/h 52 % 0 mm 216.0 W/m2 CLR
16:37 -8.8 °C -14.3 °C 33937.9 hPa SE 38.8 km/h 38.8 km/h 52 % 0 mm 207.0 W/m2 CLR
16:38 -8.8 °C -14.3 °C 33924.3 hPa SE 38.8 km/h 38.8 km/h 52 % 0 mm 200.0 W/m2 CLR
16:43 -8.8 °C -14.5 °C 33924.3 hPa SSE 41.7 km/h 41.7 km/h 51 % 0 mm 179.0 W/m2 CLR
16:48 -8.9 °C -14.6 °C 33914.2 hPa SSE 47.6 km/h 47.6 km/h 51 % 0 mm 174.0 W/m2 CLR
16:53 -8.9 °C -14.7 °C 33914.2 hPa South 59.5 km/h 59.5 km/h 50 % 0 mm 130.0 W/m2 CLR
16:58 -8.9 °C -14.8 °C 33914.2 hPa SSE 32.8 km/h 32.8 km/h 50 % 0 mm 165.0 W/m2 CLR
17:03 -8.9 °C -14.3 °C 33900.6 hPa SE 32.8 km/h 32.8 km/h 53 % 0 mm 178.0 W/m2 CLR
17:08 -9.1 °C -14.4 °C 33900.6 hPa ESE 29.8 km/h 29.8 km/h 53 % 0 mm 199.0 W/m2 CLR
17:13 -9.2 °C -14.1 °C 33890.5 hPa SE 44.7 km/h 44.7 km/h 56 % 0 mm 171.0 W/m2 CLR
17:18 -9.3 °C -13.8 °C 33890.5 hPa SE 26.9 km/h 26.9 km/h 58 % 0 mm 134.0 W/m2 CLR
17:23 -9.4 °C -14 °C 33890.5 hPa SE 41.4 km/h 41.4 km/h 58 % 0 mm 107.0 W/m2 CLR
17:28 -9.5 °C -13.9 °C 33890.5 hPa SSE 20.9 km/h 20.9 km/h 59 % 0 mm 86.0 W/m2 CLR
17:33 -9.7 °C -13.8 °C 33880.3 hPa SSE 50.7 km/h 50.7 km/h 61 % 0 mm 70.0 W/m2 CLR
17:38 -9.7 °C -13.8 °C 33866.8 hPa SSE 29.8 km/h 29.8 km/h 61 % 0 mm 58.0 W/m2 FEW
17:43 -9.8 °C -13.8 °C 33880.3 hPa South 29.8 km/h 29.8 km/h 62 % 0 mm 47.0 W/m2 SCT
17:48 -9.8 °C -13.7 °C 33880.3 hPa SSE 29.8 km/h 29.8 km/h 63 % 0 mm 54.0 W/m2 SCT
17:53 -9.8 °C -13.7 °C 33880.3 hPa SE 38.8 km/h 38.8 km/h 63 % 0 mm 72.0 W/m2 FEW
17:58 -9.9 °C -13.6 °C 33880.3 hPa SSE 29.8 km/h 29.8 km/h 64 % 0 mm 76.0 W/m2 FEW
18:03 -9.9 °C -13.7 °C 33866.8 hPa SE 44.7 km/h 44.7 km/h 64 % 0 mm 65.0 W/m2 SCT
18:08 -10.1 °C -13.7 °C 33866.8 hPa SE 31.1 km/h 31.1 km/h 65 % 0 mm 44.0 W/m2 BKN
18:13 -10.1 °C -13.6 °C 33866.8 hPa SE 29.8 km/h 29.8 km/h 66 % 0 mm 42.0 W/m2 BKN
18:18 -10.2 °C -13.4 °C 33856.6 hPa SSE 29.8 km/h 29.8 km/h 68 % 0 mm 30.0 W/m2 BKN
18:23 -10.2 °C -13.8 °C 33856.6 hPa South 50.7 km/h 50.7 km/h 65 % 0 mm 18.0 W/m2 BKN
18:28 -10.2 °C -13.7 °C 33856.6 hPa South 47.6 km/h 47.6 km/h 66 % 0 mm 12.0 W/m2 BKN
18:33 -10.3 °C -13.7 °C 33856.6 hPa SSE 44.1 km/h 44.1 km/h 67 % 0 mm 7.0 W/m2 BKN
18:38 -10.4 °C -13.7 °C 33856.6 hPa SSE 29.8 km/h 29.8 km/h 67 % 0 mm 5.0 W/m2 OVC
18:43 -10.5 °C -13.7 °C 33856.6 hPa SSE 29.8 km/h 29.8 km/h 68 % 0 mm 0.0 W/m2 OVC
18:48 -10.6 °C -13.8 °C 33866.8 hPa SSE 50.7 km/h 50.7 km/h 68 % 0 mm 0.0 W/m2 OVC
18:53 -10.6 °C -13.8 °C 33856.6 hPa South 47.6 km/h 47.6 km/h 68 % 0 mm 0.0 W/m2 OVC
18:58 -10.6 °C -13.8 °C 33880.3 hPa SSE 50.7 km/h 50.7 km/h 68 % 0 mm 0.0 W/m2 OVC
19:03 -10.6 °C -13.8 °C 33880.3 hPa South 44.7 km/h 44.7 km/h 68 % 0 mm 0.0 W/m2 CLR
19:08 -10.6 °C -13.8 °C 33880.3 hPa South 50.7 km/h 50.7 km/h 68 % 0 mm 0.0 W/m2 CLR
19:13 -10.6 °C -13.9 °C 33880.3 hPa SSE 41.7 km/h 41.7 km/h 67 % 0 mm 0.0 W/m2 CLR
19:18 -10.6 °C -13.9 °C 33880.3 hPa South 44.7 km/h 44.7 km/h 67 % 0 mm 0.0 W/m2 CLR
19:23 -10.7 °C -13.8 °C 33890.5 hPa South 35.7 km/h 35.7 km/h 68 % 0 mm 0.0 W/m2 CLR
19:28 -10.7 °C -13.9 °C 33890.5 hPa South 38.8 km/h 38.8 km/h 68 % 0 mm 0.0 W/m2 CLR
19:33 -10.7 °C -13.8 °C 33890.5 hPa SSE 29.8 km/h 29.8 km/h 69 % 0 mm 0.0 W/m2 CLR
19:38 -10.8 °C -13.6 °C 33880.3 hPa ESE 41.7 km/h 41.7 km/h 72 % 0 mm 0.0 W/m2 CLR
19:43 -10.9 °C -13.4 °C 33866.8 hPa SE 38.8 km/h 38.8 km/h 74 % 0 mm 0.0 W/m2 CLR
19:48 -10.9 °C -13.4 °C 33866.8 hPa SE 18.2 km/h 18.2 km/h 74 % 0 mm 0.0 W/m2 CLR
19:53 -10.9 °C -13.4 °C 33866.8 hPa South 15 km/h 15 km/h 74 % 0 mm 0.0 W/m2 CLR
19:58 -10.9 °C -13.3 °C 33843.1 hPa SE 32.8 km/h 32.8 km/h 75 % 0 mm 0.0 W/m2 CLR
20:03 -10.9 °C -13.3 °C 33843.1 hPa ESE 12.9 km/h 12.9 km/h 75 % 0 mm 0.0 W/m2 CLR
20:08 -10.9 °C -13.2 °C 33843.1 hPa East 26.9 km/h 26.9 km/h 76 % 0 mm 0.0 W/m2 CLR
20:13 -11.1 °C -13.1 °C 33832.9 hPa ESE 17.9 km/h 17.9 km/h 78 % 0 mm 0.0 W/m2 CLR
20:18 -11.2 °C -13.1 °C 33832.9 hPa East 15 km/h 15 km/h 79 % 0 mm 0.0 W/m2 CLR
20:23 -11.2 °C -13.1 °C 33822.8 hPa East 6 km/h   80 % 0 mm 0.0 W/m2 CLR
20:28 -11.3 °C -13.2 °C 33832.9 hPa Calm     80 % 0 mm 0.0 W/m2 CLR
20:33 -11.3 °C -13.2 °C 33832.9 hPa Calm     80 % 0 mm 0.0 W/m2 CLR
20:38 -11.3 °C -13.2 °C 33832.9 hPa Calm     80 % 0 mm 0.0 W/m2 CLR
20:43 -11.3 °C -13.1 °C 33843.1 hPa Calm     81 % 0 mm 0.0 W/m2 CLR
20:48 -11.3 °C -13.1 °C 33856.6 hPa Calm     81 % 0 mm 0.0 W/m2 CLR
20:54 -11.3 °C -13.1 °C 33856.6 hPa West 12.9 km/h 12.9 km/h 81 % 0 mm 0.0 W/m2 CLR
20:59 -11.3 °C -13 °C 33856.6 hPa Calm     81 % 0 mm 0.0 W/m2 CLR
21:04 -11.2 °C -13.1 °C 33856.6 hPa Calm     80 % 0 mm 0.0 W/m2 CLR
21:09 -11.2 °C -13.1 °C 33843.1 hPa Calm     80 % 0 mm 0.0 W/m2 CLR
21:14 -11.2 °C -13 °C 33832.9 hPa Calm     81 % 0 mm 0.0 W/m2 CLR
21:19 -11.2 °C -12.9 °C 33832.9 hPa Calm     81 % 0 mm 0.0 W/m2 CLR
21:24 -11.2 °C -13 °C 33832.9 hPa Calm     80 % 0 mm 0.0 W/m2 CLR
21:29 -11.2 °C -13.1 °C 33832.9 hPa Calm     80 % 0 mm 0.0 W/m2 CLR
21:34 -11.2 °C -12.9 °C 33832.9 hPa Calm     81 % 0 mm 0.0 W/m2 CLR
21:39 -11.2 °C -12.9 °C 33822.8 hPa Calm     81 % 0 mm 0.0 W/m2 CLR
21:44 -11.2 °C -12.9 °C 33822.8 hPa Calm     82 % 0 mm 0.0 W/m2 CLR
21:49 -11.3 °C -12.8 °C 33809.2 hPa Calm     83 % 0 mm 0.0 W/m2 CLR
21:54 -11.4 °C -12.8 °C 33822.8 hPa Calm     84 % 7.62 mm 0.0 W/m2 RA
21:59 -11.4 °C -12.9 °C 33822.8 hPa Calm     84 % 7.62 mm 0.0 W/m2 CLR
22:04 -11.5 °C -12.8 °C 33843.1 hPa WSW 12.9 km/h 14.8 km/h 86 % 25.4 mm 0.0 W/m2 RA
22:09 -11.8 °C -12.8 °C 33880.3 hPa WNW 62.1 km/h 62.1 km/h 88 % 71.12 mm 0.0 W/m2 RA
22:14 -13 °C -14.4 °C 33890.5 hPa WSW 92.4 km/h 92.4 km/h 84 % 226.06 mm 0.0 W/m2 RA
22:19 -13.5 °C -14.6 °C 33890.5 hPa WSW 92.4 km/h 92.4 km/h 87 % 309.88 mm 0.0 W/m2 RA
22:24 -13.7 °C -14.6 °C 33890.5 hPa WSW 49.2 km/h 49.2 km/h 89 % 347.98 mm 0.0 W/m2 RA
22:29 -13.7 °C -14.6 °C 33866.8 hPa West 44.7 km/h 44.7 km/h 90 % 386.08 mm 0.0 W/m2 RA
22:34 -13.7 °C -14.6 °C 33856.6 hPa WSW 38.8 km/h 38.8 km/h 90 % 406.4 mm 0.0 W/m2 RA
22:39 -13.7 °C -14.6 °C 33843.1 hPa WNW 26.9 km/h 26.9 km/h 90 % 419.1 mm 0.0 W/m2 RA
22:44 -13.6 °C -14.5 °C 33822.8 hPa West 41.7 km/h 41.7 km/h 90 % 426.72 mm 0.0 W/m2 RA
22:49 -13.5 °C -14.5 °C 33822.8 hPa West 47.6 km/h 47.6 km/h 89 % 426.72 mm 0.0 W/m2 RA
22:54 -13.5 °C -14.4 °C 33822.8 hPa WNW 56.6 km/h 56.6 km/h 89 % 431.8 mm 0.0 W/m2 RA
22:59 -13.5 °C -14.6 °C 33822.8 hPa WNW 50.7 km/h 50.7 km/h 88 % 444.5 mm 0.0 W/m2 RA
23:04 -13.5 °C -14.4 °C 33809.2 hPa West 29.8 km/h 29.8 km/h 89 % 419.1 mm 0.0 W/m2 RA
23:09 -13.6 °C -14.5 °C 33809.2 hPa WNW 20.9 km/h 20.9 km/h 89 % 360.68 mm 0.0 W/m2 RA
23:14 -13.6 °C -14.4 °C 33809.2 hPa West 38.8 km/h 38.8 km/h 90 % 218.44 mm 0.0 W/m2 RA
23:19 -13.6 °C -14.5 °C 33822.8 hPa West 29.8 km/h 29.8 km/h 90 % 154.94 mm 0.0 W/m2 RA
23:24 -13.7 °C -14.6 °C 33832.9 hPa WSW 38.8 km/h 38.8 km/h 89 % 109.22 mm 0.0 W/m2 CLR
23:29 -13.7 °C -14.6 °C 33843.1 hPa West 29.8 km/h 29.8 km/h 89 % 83.82 mm 0.0 W/m2 RA
23:34 -13.8 °C -14.7 °C 33843.1 hPa West 38.8 km/h 38.8 km/h 89 % 71.12 mm 0.0 W/m2 RA
23:39 -13.8 °C -14.7 °C 33843.1 hPa WNW 50.7 km/h 50.7 km/h 89 % 71.12 mm 0.0 W/m2 RA
23:44 -13.8 °C -14.8 °C 33843.1 hPa West 50.7 km/h 50.7 km/h 88 % 63.5 mm 0.0 W/m2 RA
23:49 -13.8 °C -14.9 °C 33822.8 hPa WNW 65.5 km/h 65.5 km/h 88 % 63.5 mm 0.0 W/m2 RA
23:54 -13.9 °C -14.9 °C 33822.8 hPa West 68.6 km/h 68.6 km/h 88 % 71.12 mm 0.0 W/m2 RA
23:59 -14 °C -15 °C 33822.8 hPa WNW 51.8 km/h 51.8 km/h 88 % 58.42 mm 0.0 W/m2
Lo Temps de Massalio
Compliments of Weather Underground - 1.25 mb